GW1804 Weather Reports


time (UTC)temp
C
wind
direction
speed
KPH
gust
KPH
rain 1hr
cm
rain 24hr
cm
rain mn
cm
humidity
%
barometer
mb
20260905220057 27 276 6.4 12.9 0.00 0.00 0.00 63 1012.6
20260905215535 27 314 6.4 14.5 0.00 0.00 0.00 64 1012.6
20260905215035 27 296 6.4 14.5 0.00 0.00 0.00 64 1012.7
20260905214601 27 296 6.4 14.5 0.00 0.00 0.00 63 1012.7
20260905214035 27 311 8.0 14.5 0.00 0.00 0.00 62 1012.7
20260905213535 27 309 6.4 14.5 0.00 0.00 0.00 62 1012.7
20260905213105 27 302 6.4 14.5 0.00 0.00 0.00 64 1012.8
20260905212535 27 305 6.4 14.5 0.00 0.00 0.00 65 1012.8
20260905212035 27 292 6.4 12.9 0.00 0.00 0.00 67 1012.9
20260905211600 27 279 6.4 12.9 0.00 0.00 0.00 67 1012.9
20260905211035 27 285 4.8 12.9 0.00 0.00 0.00 67 1012.9
20260905210536 27 313 4.8 14.5 0.00 0.00 0.00 67 1012.9
20260905210108 27 343 4.8 14.5 0.00 0.00 0.00 66 1012.9
20260905205536 27 292 6.4 14.5 0.00 0.00 0.00 67 1012.9
20260905205035 27 277 6.4 12.9 0.00 0.00 0.00 66 1013.0
20260905204552 27 339 4.8 12.9 0.00 0.00 0.00 67 1013.0
20260905204034 27 321 4.8 12.9 0.00 0.00 0.00 68 1013.1
20260905203535 27 321 4.8 12.9 0.00 0.00 0.00 68 1013.1
20260905203102 26 314 3.2 12.9 0.00 0.00 0.00 68 1013.1
20260905202532 26 299 3.2 12.9 0.00 0.00 0.00 67 1013.1
20260905202032 26 293 3.2 12.9 0.00 0.00 0.00 70 1013.2
20260905201600 26 266 6.4 12.9 0.00 0.00 0.00 70 1013.2
20260905201032 26 320 4.8 11.3 0.00 0.00 0.00 70 1013.2
20260905200537 26 0 4.8 9.7 0.00 0.00 0.00 68 1013.3
20260905200118 26 310 4.8 9.7 0.00 0.00 0.00 68 1013.4
20260905195535 25 5 3.2 11.3 0.00 0.00 0.00 68 1013.4
20260905195035 25 317 4.8 11.3 0.00 0.00 0.00 70 1013.5
20260905194603 25 306 3.2 11.3 0.00 0.00 0.00 69 1013.5
20260905194035 25 313 1.6 11.3 0.00 0.00 0.00 69 1013.7
20260905193535 25 313 4.8 11.3 0.00 0.00 0.00 71 1013.6
20260905193100 25 329 3.2 11.3 0.00 0.00 0.00 72 1013.7
20260905192535 24 286 4.8 11.3 0.00 0.00 0.00 73 1013.8
20260905192035 24 308 4.8 8.0 0.00 0.00 0.00 73 1014.0
20260905191559 24 300 3.2 8.0 0.00 0.00 0.00 73 1014.0
20260905191034 24 300 3.2 8.0 0.00 0.00 0.00 73 1014.1
20260905190534 23 269 3.2 8.0 0.00 0.00 0.00 73 1014.0
20260905190100 23 288 3.2 8.0 0.00 0.00 0.00 74 1014.0
20260905185536 23 290 3.2 8.0 0.00 0.00 0.00 72 1014.1
20260905185031 23 323 3.2 8.0 0.00 0.00 0.00 73 1014.1
20260905184607 23 297 1.6 6.4 0.00 0.00 0.00 73 1014.1
20260905184037 23 0 4.8 8.0 0.00 0.00 0.00 72 1014.1
20260905183536 23 294 4.8 11.3 0.00 0.00 0.00 72 1014.1
20260905183052 23 338 3.2 11.3 0.00 0.00 0.00 72 1014.1
20260905182532 23 302 3.2 11.3 0.00 0.00 0.00 71 1014.3
20260905182037 23 305 3.2 11.3 0.00 0.00 0.00 71 1014.3
20260905181558 23 275 4.8 9.7 0.00 0.00 0.00 70 1014.2
20260905181032 23 304 4.8 11.3 0.00 0.00 0.00 67 1014.2
20260905180533 23 292 4.8 11.3 0.00 0.00 0.00 68 1014.2
20260905180112 23 273 3.2 8.0 0.00 0.00 0.00 68 1014.3
20260905175532 23 309 1.6 6.4 0.00 0.00 0.00 68 1014.2
20260905175034 23 311 1.6 6.4 0.00 0.00 0.00 68 1014.2
20260905174554 23 275 1.6 4.8 0.00 0.00 0.00 69 1014.2
20260905174034 23 306 1.6 4.8 0.00 0.00 0.00 69 1014.2
20260905173535 23 233 1.6 4.8 0.00 0.00 0.00 68 1014.2
20260905173127 23 277 1.6 4.8 0.00 0.00 0.00 69 1014.2
20260905172534 22 0 0.0 4.8 0.00 0.00 0.00 69 1014.0
20260905172032 22 0 1.6 4.8 0.00 0.00 0.00 71 1014.0
20260905171600 22 305 0.0 4.8 0.00 0.00 0.00 71 1014.0
20260905171032 22 303 1.6 4.8 0.00 0.00 0.00 70 1014.0
20260905170531 22 287 1.6 4.8 0.00 0.00 0.00 71 1014.0
20260905170058 21 257 1.6 4.8 0.00 0.00 0.00 71 1014.0
20260905165535 21 290 1.6 4.8 0.00 0.00 0.00 73 1014.0
20260905165035 21 311 0.0 4.8 0.00 0.00 0.00 75 1013.9
20260905164600 21 0 1.6 4.8 0.00 0.00 0.00 78 1014.0
20260905164034 20 311 0.0 4.8 0.00 0.00 0.00 79 1013.9
20260905163531 20 311 0.0 4.8 0.00 0.00 0.00 79 1013.9
20260905163101 20 302 0.0 4.8 0.00 0.00 0.00 80 1013.9
20260905162532 20 302 0.0 3.2 0.00 0.00 0.00 81 1013.9
20260905162031 19 318 0.0 4.8 0.00 0.00 0.00 83 1013.9
20260905161601 19 265 0.0 4.8 0.00 0.00 0.00 84 1013.8
20260905161035 19 265 0.0 4.8 0.00 0.00 0.00 85 1013.8
20260905160532 19 307 1.6 4.8 0.00 0.00 0.00 87 1013.8
20260905160101 18 0 0.0 3.2 0.00 0.00 0.00 88 1013.8
20260905155536 18 215 0.0 3.2 0.00 0.00 0.00 89 1013.9
20260905155031 18 0 0.0 3.2 0.00 0.00 0.00 89 1014.0
20260905154600 18 0 0.0 3.2 0.00 0.00 0.00 90 1013.9
20260905154038 18 0 0.0 3.2 0.00 0.00 0.00 90 1013.9
20260905153535 18 0 0.0 1.6 0.00 0.00 0.00 90 1013.9
20260905153051 17 0 0.0 1.6 0.00 0.00 0.00 90 1013.7
20260905152532 17 0 0.0 1.6 0.00 0.00 0.00 91 1013.7
20260905152032 17 0 0.0 1.6 0.00 0.00 0.00 91 1013.7
20260905151601 17 0 0.0 0.0 0.00 0.00 0.00 90 1013.7
20260905151036 17 0 0.0 1.6 0.00 0.00 0.00 90 1013.7
20260905150532 17 0 0.0 1.6 0.00 0.00 0.00 90 1013.6
20260905150054 17 0 0.0 1.6 0.00 0.00 0.00 90 1013.6
20260905145537 17 0 0.0 0.0 0.00 0.00 0.00 90 1013.5
20260905145035 17 0 0.0 0.0 0.00 0.00 0.00 90 1013.5
20260905144552 17 0 0.0 0.0 0.00 0.00 0.00 90 1013.5
20260905144034 16 0 0.0 0.0 0.00 0.00 0.00 90 1013.4
20260905143532 17 0 0.0 0.0 0.00 0.00 0.00 90 1013.2
20260905143052 17 0 0.0 1.6 0.00 0.00 0.00 90 1013.2
20260905142535 17 0 0.0 1.6 0.00 0.00 0.00 90 1013.2
20260905142032 16 0 0.0 1.6 0.00 0.00 0.00 90 1013.2
20260905141557 16 0 0.0 1.6 0.00 0.00 0.00 90 1013.0
20260905141034 16 0 0.0 1.6 0.00 0.00 0.00 90 1012.9
20260905140532 16 0 0.0 0.0 0.00 0.00 0.00 90 1012.9
20260905140100 16 0 0.0 0.0 0.00 0.00 0.00 90 1013.0
20260905135536 16 0 0.0 0.0 0.00 0.00 0.00 89 1013.0
20260905135034 16 0 0.0 0.0 0.00 0.00 0.00 89 1012.9
20260905134606 16 0 0.0 0.0 0.00 0.00 0.00 89 1012.8
20260905134032 16 0 0.0 0.0 0.00 0.00 0.00 89 1012.8
20260905133532 16 0 0.0 0.0 0.00 0.00 0.00 90 1012.7
20260905133100 16 0 0.0 0.0 0.00 0.00 0.00 90 1012.7
20260905132531 16 0 0.0 0.0 0.00 0.00 0.00 90 1012.7
20260905132031 16 0 0.0 0.0 0.00 0.00 0.00 90 1012.5
20260905131600 16 0 0.0 0.0 0.00 0.00 0.00 90 1012.5
20260905131033 16 0 0.0 0.0 0.00 0.00 0.00 90 1012.4
20260905130532 16 0 0.0 0.0 0.00 0.00 0.00 90 1012.4
20260905130055 16 0 0.0 0.0 0.00 0.00 0.00 90 1012.4
20260905125534 16 0 0.0 1.6 0.00 0.00 0.00 90 1012.4
20260905125032 16 0 0.0 1.6 0.00 0.00 0.00 90 1012.5
20260905124604 16 0 0.0 1.6 0.00 0.00 0.00 90 1012.5
20260905124034 16 0 0.0 1.6 0.00 0.00 0.00 90 1012.5
20260905123531 16 0 0.0 1.6 0.00 0.00 0.00 90 1012.5
20260905123106 16 0 0.0 1.6 0.00 0.00 0.00 90 1012.5
20260905122532 16 0 0.0 1.6 0.00 0.00 0.00 90 1012.6
20260905122031 16 0 0.0 0.0 0.00 0.00 0.00 89 1012.6
20260905121559 16 0 0.0 0.0 0.00 0.00 0.00 89 1012.7
20260905121032 17 0 0.0 0.0 0.00 0.00 0.00 89 1012.7
20260905120531 17 0 0.0 0.0 0.00 0.00 0.00 89 1012.6
20260905120105 17 0 0.0 0.0 0.00 0.00 0.00 89 1012.5
20260905115532 17 0 0.0 0.0 0.00 0.00 0.00 90 1012.5
20260905115032 17 0 0.0 0.0 0.00 0.00 0.00 90 1012.4
20260905114611 17 0 0.0 0.0 0.00 0.00 0.00 90 1012.4
20260905114031 17 0 0.0 0.0 0.00 0.00 0.00 90 1012.4
20260905113535 17 0 0.0 0.0 0.00 0.00 0.00 90 1012.4
20260905113100 17 0 0.0 1.6 0.00 0.00 0.00 90 1012.5
20260905112532 17 0 0.0 1.6 0.00 0.00 0.00 90 1012.5
20260905112032 17 0 0.0 3.2 0.00 0.00 0.00 90 1012.6
20260905111646 17 0 0.0 3.2 0.00 0.00 0.00 90 1012.6
20260905111032 17 0 0.0 3.2 0.00 0.00 0.00 90 1012.7
20260905110531 17 0 0.0 3.2 0.00 0.00 0.00 90 1012.8
20260905110051 17 0 0.0 3.2 0.00 0.00 0.00 90 1012.8
20260905105532 17 0 0.0 1.6 0.00 0.00 0.00 89 1012.8
20260905105031 17 0 0.0 1.6 0.00 0.00 0.00 89 1012.7
20260905104550 17 0 0.0 1.6 0.00 0.00 0.00 89 1012.7
20260905104031 17 0 0.0 3.2 0.00 0.00 0.00 89 1012.8
20260905103531 17 0 0.0 3.2 0.00 0.00 0.00 89 1012.8
20260905103102 17 0 0.0 3.2 0.00 0.00 0.00 89 1012.7
20260905102532 17 0 0.0 0.0 0.00 0.00 0.00 89 1012.8
20260905102032 17 0 0.0 0.0 0.00 0.00 0.00 89 1012.8
20260905101556 17 0 0.0 1.6 0.00 0.00 0.00 89 1012.8
20260905101031 17 0 0.0 1.6 0.00 0.00 0.00 89 1012.7
20260905100531 17 0 0.0 3.2 0.00 0.00 0.00 89 1012.8
20260905100058 17 0 0.0 3.2 0.00 0.00 0.00 89 1012.7
20260905095531 17 0 0.0 1.6 0.00 0.00 0.00 89 1012.7
20260905095032 17 0 0.0 1.6 0.00 0.00 0.00 89 1012.9
20260905094552 17 0 0.0 1.6 0.00 0.00 0.00 89 1012.9
20260905094036 17 0 0.0 0.0 0.00 0.00 0.00 89 1012.8
20260905093532 17 0 0.0 0.0 0.00 0.00 0.00 89 1012.8
20260905093117 17 0 0.0 0.0 0.00 0.00 0.00 89 1012.8
20260905092533 17 0 0.0 0.0 0.00 0.00 0.00 89 1012.9
20260905092032 17 0 0.0 1.6 0.00 0.00 0.00 88 1012.9
20260905091556 17 0 0.0 1.6 0.00 0.00 0.00 88 1012.8
20260905091032 17 0 0.0 0.0 0.00 0.00 0.00 88 1012.9
20260905090531 17 0 0.0 0.0 0.00 0.00 0.00 88 1012.8
20260905085532 17 0 0.0 0.0 0.00 0.00 0.00 88 1012.9
20260905085035 17 0 0.0 0.0 0.00 0.00 0.00 88 1013.0
20260905084603 17 0 0.0 0.0 0.00 0.00 0.00 88 1013.0
20260905084031 17 0 0.0 0.0 0.00 0.00 0.00 88 1013.2
20260905083531 17 0 0.0 0.0 0.00 0.00 0.00 88 1013.2
20260905083058 17 0 0.0 1.6 0.00 0.00 0.00 87 1013.3
20260905082533 17 0 0.0 1.6 0.00 0.00 0.00 87 1013.2
20260905082032 17 0 0.0 0.0 0.00 0.00 0.00 87 1013.3
20260905081552 17 0 0.0 0.0 0.00 0.00 0.00 87 1013.4
20260905081033 17 0 0.0 0.0 0.00 0.00 0.00 87 1013.5
20260905080532 17 0 0.0 0.0 0.00 0.00 0.00 87 1013.5
20260905080054 17 0 0.0 0.0 0.00 0.00 0.00 86 1013.5
20260905075533 17 0 0.0 0.0 0.00 0.00 0.00 87 1013.6
20260905075034 17 0 0.0 0.0 0.00 0.00 0.00 86 1013.6
20260905074550 18 0 0.0 0.0 0.00 0.00 0.00 87 1013.8
20260905074032 18 0 0.0 0.0 0.00 0.00 0.00 87 1013.7
20260905073534 18 0 0.0 0.0 0.00 0.00 0.00 87 1013.6
20260905073055 18 0 0.0 0.0 0.00 0.00 0.00 87 1013.7
20260905072532 18 0 0.0 0.0 0.00 0.00 0.00 86 1013.6
20260905072033 18 0 0.0 0.0 0.00 0.00 0.00 86 1013.6
20260905071553 18 0 0.0 0.0 0.00 0.00 0.00 86 1013.6
20260905071031 18 0 0.0 0.0 0.00 0.00 0.00 86 1013.6
20260905070534 18 0 0.0 0.0 0.00 0.00 0.00 86 1013.6
20260905070057 18 0 0.0 0.0 0.00 0.00 0.00 86 1013.7
20260905065532 18 0 0.0 0.0 0.00 0.00 0.00 86 1013.8
20260905065035 18 0 0.0 0.0 0.00 0.00 0.00 86 1013.7
20260905064616 18 0 0.0 0.0 0.00 0.00 0.00 86 1013.7
20260905064036 18 0 0.0 0.0 0.00 0.00 0.00 86 1013.7
20260905063536 18 0 0.0 0.0 0.00 0.00 0.00 86 1013.8
20260905063101 18 0 0.0 0.0 0.00 0.00 0.00 86 1013.7
20260905062535 18 0 0.0 0.0 0.00 0.00 0.00 86 1013.7
20260905062035 18 0 0.0 0.0 0.00 0.00 0.00 86 1013.7
20260905061601 18 0 0.0 0.0 0.00 0.00 0.00 86 1013.6
20260905061036 18 0 0.0 0.0 0.00 0.00 0.00 86 1013.6
20260905060535 18 0 0.0 0.0 0.00 0.00 0.00 86 1013.6
20260905060106 18 0 0.0 0.0 0.00 0.00 0.00 86 1013.6
20260905055533 18 0 0.0 0.0 0.00 0.00 0.00 86 1013.6
20260905055035 18 0 0.0 0.0 0.00 0.00 0.00 86 1013.6
20260905054601 18 0 0.0 1.6 0.00 0.00 0.00 86 1013.5
20260905054040 18 0 0.0 1.6 0.00 0.00 0.00 86 1013.5
20260905053536 18 0 0.0 1.6 0.00 0.00 0.00 86 1013.5
20260905053054 18 0 0.0 0.0 0.00 0.00 0.00 85 1013.6
20260905052537 18 0 0.0 0.0 0.00 0.00 0.00 85 1013.6
20260905052036 18 0 0.0 0.0 0.00 0.00 0.00 85 1013.5
20260905051554 18 0 0.0 0.0 0.00 0.00 0.00 85 1013.6
20260905051036 18 0 0.0 0.0 0.00 0.00 0.00 85 1013.6
20260905050536 18 0 0.0 0.0 0.00 0.00 0.00 85 1013.7
20260905050058 19 0 0.0 0.0 0.00 0.00 0.00 84 1013.7
20260905045538 19 0 0.0 0.0 0.00 0.00 0.00 84 1013.6
20260905045035 19 0 0.0 0.0 0.00 0.00 0.00 84 1013.6
20260905044604 19 0 0.0 0.0 0.00 0.00 0.00 84 1013.5
20260905044037 19 0 0.0 0.0 0.00 0.00 0.00 84 1013.5
20260905043535 19 0 0.0 0.0 0.00 0.00 0.00 84 1013.4
20260905043101 19 0 0.0 0.0 0.00 0.00 0.00 84 1013.4
20260905042535 19 0 0.0 0.0 0.00 0.00 0.00 84 1013.1
20260905042036 19 0 0.0 0.0 0.00 0.00 0.00 84 1013.1
20260905041558 19 0 0.0 0.0 0.00 0.00 0.00 84 1013.1
20260905041035 19 0 0.0 1.6 0.00 0.00 0.00 83 1013.2
20260905040535 19 0 0.0 1.6 0.00 0.00 0.00 83 1013.1
20260905035535 19 0 0.0 0.0 0.00 0.00 0.00 83 1013.2
20260905035032 19 0 0.0 1.6 0.00 0.00 0.00 83 1013.1
20260905034605 19 0 0.0 1.6 0.00 0.00 0.00 83 1013.0
20260905034037 19 0 0.0 1.6 0.00 0.00 0.00 83 1013.0
20260905033535 20 0 0.0 1.6 0.00 0.00 0.00 82 1013.0
20260905033103 20 0 0.0 3.2 0.00 0.00 0.00 82 1013.0
20260905032534 20 0 0.0 3.2 0.00 0.00 0.00 82 1012.9
20260905032035 20 0 0.0 3.2 0.00 0.00 0.00 82 1012.8
20260905031555 20 0 0.0 1.6 0.00 0.00 0.00 81 1012.8
20260905031035 20 291 0.0 1.6 0.00 0.00 0.00 81 1012.9
20260905030535 20 0 0.0 3.2 0.00 0.00 0.00 81 1012.8
20260905030117 20 291 0.0 3.2 0.00 0.00 0.00 80 1012.6
20260905025535 20 0 0.0 3.2 0.00 0.00 0.00 80 1012.5
20260905025035 20 291 0.0 3.2 0.00 0.00 0.00 79 1012.4
20260905024605 20 301 0.0 3.2 0.00 0.00 0.00 79 1012.4
20260905024035 20 0 0.0 3.2 0.00 0.00 0.00 78 1012.5
20260905023534 21 0 0.0 3.2 0.00 0.00 0.00 78 1012.5
20260905023104 21 0 0.0 3.2 0.00 0.00 0.00 77 1012.5
20260905022535 21 252 0.0 6.4 0.00 0.00 0.00 77 1012.6
20260905022035 21 0 0.0 6.4 0.00 0.00 0.00 77 1012.6
20260905021604 21 282 1.6 6.4 0.00 0.00 0.00 76 1012.6
20260905021035 21 300 1.6 6.4 0.00 0.00 0.00 75 1012.6
20260905020539 21 307 3.2 6.4 0.00 0.00 0.00 75 1012.6
20260905020107 22 272 3.2 6.4 0.00 0.00 0.00 74 1012.6
20260905015535 22 250 1.6 9.7 0.00 0.00 0.00 73 1012.5
20260905015038 22 294 3.2 9.7 0.00 0.00 0.00 73 1012.6
20260905014601 22 283 1.6 6.4 0.00 0.00 0.00 73 1012.5
20260905014035 22 325 3.2 6.4 0.00 0.00 0.00 72 1012.5
20260905013535 23 280 1.6 6.4 0.00 0.00 0.00 72 1012.4
20260905013056 23 275 1.6 8.0 0.00 0.00 0.00 72 1012.3
20260905012538 23 277 3.2 8.0 0.00 0.00 0.00 71 1012.4
20260905012034 23 256 3.2 9.7 0.00 0.00 0.00 71 1012.4
20260905011556 23 269 3.2 9.7 0.00 0.00 0.00 71 1012.5
20260905011035 23 265 1.6 11.3 0.00 0.00 0.00 71 1012.5
20260905010538 23 309 4.8 11.3 0.00 0.00 0.00 71 1012.6
20260905005535 23 301 1.6 11.3 0.00 0.00 0.00 71 1012.5
20260905005036 23 330 4.8 11.3 0.00 0.00 0.00 71 1012.4
20260905004608 23 239 1.6 11.3 0.00 0.00 0.00 71 1012.5
20260905004036 23 309 3.2 9.7 0.00 0.00 0.00 70 1012.5
20260905003535 23 254 3.2 9.7 0.00 0.00 0.00 70 1012.6
20260905003058 23 303 3.2 14.5 0.00 0.00 0.00 70 1012.6
20260905002534 24 291 4.8 14.5 0.00 0.00 0.00 69 1012.6
20260905002035 24 212 4.8 9.7 0.00 0.00 0.00 68 1012.5
20260905001601 24 224 3.2 9.7 0.00 0.00 0.00 68 1012.6
20260905001035 24 271 4.8 11.3 0.00 0.00 0.00 68 1012.5
20260905000536 25 239 4.8 11.3 0.00 0.00 0.00 67 1012.5
20260905000106 24 267 3.2 9.7 0.00 0.00 0.00 68 1012.5
20260904235534 24 279 1.6 9.7 0.00 0.00 0.00 67 1012.7
20260904235032 24 258 3.2 11.3 0.00 0.00 0.00 68 1012.5
20260904234608 24 283 4.8 11.3 0.00 0.00 0.00 68 1012.5
20260904234038 24 265 3.2 11.3 0.00 0.00 0.00 68 1012.5
20260904233535 24 205 3.2 11.3 0.00 0.00 0.00 69 1012.7
20260904233057 24 248 4.8 16.1 0.00 0.00 0.00 68 1012.7
20260904232535 24 291 6.4 16.1 0.00 0.00 0.00 67 1012.7
20260904232035 24 286 3.2 11.3 0.00 0.00 0.00 68 1012.6
20260904231554 24 295 4.8 12.9 0.00 0.00 0.00 67 1012.7
20260904231035 24 224 3.2 12.9 0.00 0.00 0.00 68 1012.6
20260904230532 24 301 4.8 11.3 0.00 0.00 0.00 68 1012.6
20260904230053 24 279 4.8 11.3 0.00 0.00 0.00 68 1012.6
20260904225531 24 291 4.8 12.9 0.00 0.00 0.00 68 1012.7
20260904225034 24 236 3.2 12.9 0.00 0.00 0.00 69 1012.7
20260904224603 24 319 6.4 12.9 0.00 0.00 0.00 68 1012.8
20260904224035 24 263 4.8 14.5 0.00 0.00 0.00 69 1012.8
20260904223535 24 259 6.4 16.1 0.00 0.00 0.00 68 1012.7
20260904223059 24 301 6.4 17.7 0.00 0.00 0.00 69 1012.7
20260904222537 24 273 6.4 17.7 0.00 0.00 0.00 67 1012.8
20260904222035 24 302 4.8 16.1 0.00 0.00 0.00 68 1012.9
20260904221555 24 304 6.4 16.1 0.00 0.00 0.00 66 1012.9
20260904221035 24 313 6.4 17.7 0.00 0.00 0.00 67 1012.9
20260904220538 24 291 6.4 17.7 0.00 0.00 0.00 68 1013.0